Content
SEND FEEDBACK

Daily
Averages
Monthly
Summary
United States of America

HADDAM, KANSAS


Home > North America > United States > Kansas
Elevation: 1400 feet     Latitude: 39 51N     Longitude: 097 18W

WEATHER
 
SELECT A DAY
Number of Records: 264,786;   Date Range: 2/25/04 - 10/21/14
 
SHARE

PRINT THIS DATA

[ ← Previous Day ]
WEATHER ALMANAC - JANUARY 23, 2013
[ Next Day → ]
[ °C ]   °F
Weather ElementAverageHighLow
Temperature26.7 °F39.4 °F (12:55 pm)15.8 °F (3:55 am)
Dewpoint15.9 °F21.7 °F (10:55 am)10.2 °F (10:55 pm)
Humidity65.1 %82 % (3:55 am)46 % (12:15 pm)
Barometer30.25 in30.46 in (11:55 pm)30.14 in (4:55 am)
Wind Speed8.7 mph17.3 mph (1:35 pm)
Wind Gust23 mph (10:15 pm)
Weather ElementAverage
Visibility10 mi
Wind DirectionENE (70.1 °)

Weather ElementTotal
Precipitation---
Heating Degree Days37.4 (Base 65)
Averaged from 67 records on January 23, 2013
WEATHER CONDITIONS BREAKOUT
WIND DIRECTION BREAKOUT
WEATHER BY HOUR - JANUARY 23, 2013
[ °C ]   °F
Local TimeTemperatureDewpointHumidityBarometerVisibilityWind DirectionWind SpeedGust SpeedPrecipitationEventsConditions
12:35 AM19.4 °F12.4 °F74 %30.21 in10.0 miCalmClear
12:55 AM19.0 °F12.2 °F75 %30.21 in10.0 miCalmClear
1:35 AM19.2 °F11.7 °F72 %30.18 in10.0 miCalmClear
1:55 AM19.9 °F12.0 °F71 %30.18 in10.0 miSW (220°)3.5 mphClear
2:15 AM19.0 °F12.2 °F75 %30.18 in10.0 miCalmClear
2:35 AM18.5 °F12.2 °F76 %30.19 in10.0 miCalmClear
2:55 AM17.1 °F11.7 °F79 %30.18 in10.0 miCalmClear
3:55 AM15.8 °F11.3 °F82 %30.16 in10.0 miCalmClear
4:15 AM18.0 °F12.9 °F81 %30.16 in10.0 miSSW (200°)3.5 mphClear
4:35 AM20.7 °F13.3 °F73 %30.15 in10.0 miSW (220°)3.5 mphClear
4:55 AM22.1 °F14.5 °F73 %30.14 in10.0 miSSW (200°)8.1 mphClear
5:15 AM23.2 °F14.9 °F71 %30.14 in10.0 miWSW (240°)3.5 mphClear
5:35 AM22.1 °F14.2 °F72 %30.14 in10.0 miWSW (250°)3.5 mphClear
5:55 AM21.2 °F14.4 °F75 %30.14 in10.0 miSW (230°)3.5 mphClear
6:15 AM21.6 °F14.5 °F74 %30.14 in10.0 miCalmClear
6:35 AM20.1 °F14.0 °F77 %30.14 in10.0 miCalmClear
6:55 AM19.6 °F13.6 °F78 %30.15 in10.0 miCalmClear
7:15 AM18.3 °F12.9 °F79 %30.16 in10.0 miCalmClear
7:35 AM17.4 °F12.2 °F80 %30.17 in10.0 miNW (310°)3.5 mphClear
7:55 AM17.6 °F12.4 °F80 %30.17 in10.0 miCalmClear
8:15 AM18.0 °F12.7 °F80 %30.17 in10.0 miCalmClear
8:35 AM19.9 °F14.2 °F78 %30.17 in10.0 miCalmClear
8:55 AM22.6 °F16.2 °F76 %30.17 in10.0 miNNW (330°)3.5 mphClear
9:15 AM23.0 °F16.5 °F76 %30.18 in10.0 miNW (320°)3.5 mphClear
9:35 AM27.0 °F19.4 °F73 %30.19 in10.0 miNNW (340°)5.8 mphClear
9:55 AM29.7 °F21.0 °F70 %30.20 in10.0 miNorth (350°)5.8 mphClear
10:15 AM32.0 °F21.2 °F64 %30.21 in10.0 miNorth (360°)8.1 mphClear
10:35 AM33.1 °F21.2 °F62 %30.21 in10.0 miNNE (30°)10.4 mphClear
10:55 AM34.3 °F21.7 °F60 %30.22 in10.0 miNNE (20°)10.4 mphClear
11:15 AM36.0 °F21.4 °F55 %30.22 in10.0 miNNE (30°)10.4 mphClear
11:35 AM37.4 °F20.8 °F51 %30.23 in10.0 miNNE (20°)12.7 mphClear
11:55 AM38.3 °F20.1 °F48 %30.22 in10.0 miNNE (20°)15.0 mph19.6 mphClear
12:15 PM39.2 °F19.9 °F46 %30.22 in10.0 miNNE (30°)15.0 mphClear
12:35 PM39.2 °F19.8 °F46 %30.22 in10.0 miNE (40°)15.0 mph19.6 mphClear
12:55 PM39.4 °F20.5 °F47 %30.21 in10.0 miNNE (30°)13.8 mphClear
1:15 PM38.7 °F20.7 °F48 %30.21 in10.0 miNNE (30°)16.1 mphClear
1:35 PM38.1 °F20.3 °F49 %30.21 in10.0 miNNE (20°)17.3 mph21.9 mphClear
1:55 PM38.3 °F20.8 °F50 %30.21 in10.0 miNNE (20°)17.3 mph21.9 mphClear
2:15 PM37.8 °F21.0 °F51 %30.21 in10.0 miNNE (30°)15.0 mph21.9 mphClear
2:35 PM37.9 °F21.2 °F51 %30.21 in10.0 miNE (40°)16.1 mph21.9 mphClear
2:55 PM37.4 °F21.4 °F52 %30.22 in10.0 miNNE (30°)15.0 mph20.7 mphClear
3:15 PM37.8 °F21.2 °F51 %30.23 in10.0 miNNE (30°)16.1 mphClear
3:35 PM36.5 °F20.3 °F52 %30.24 in10.0 miNNE (30°)15.0 mph20.7 mphClear
3:55 PM35.8 °F20.3 °F53 %30.24 in10.0 miNNE (20°)12.7 mph18.4 mphClear
4:15 PM35.1 °F19.6 °F53 %30.27 in10.0 miNNE (20°)12.7 mph17.3 mphClear
4:35 PM34.3 °F19.2 °F54 %30.27 in10.0 miNNE (20°)11.5 mphClear
4:55 PM33.8 °F19.4 °F56 %30.28 in10.0 miNNE (30°)16.1 mph20.7 mphClear
5:15 PM32.2 °F19.2 °F59 %30.29 in10.0 miNNE (20°)13.8 mph19.6 mphClear
5:35 PM31.5 °F18.3 °F58 %30.30 in10.0 miNNE (20°)13.8 mph21.9 mphClear
5:55 PM30.4 °F17.8 °F60 %30.32 in10.0 miNNE (20°)10.4 mph17.3 mphClear
6:15 PM29.3 °F18.0 °F63 %30.32 in10.0 miNE (40°)11.5 mphClear
6:35 PM28.2 °F16.7 °F62 %30.35 in10.0 miNE (40°)12.7 mphClear
6:55 PM27.5 °F15.6 °F61 %30.35 in10.0 miNNE (30°)12.7 mph20.7 mphClear
7:15 PM26.8 °F14.9 °F61 %30.36 in10.0 miNNE (30°)11.5 mphClear
7:35 PM25.7 °F15.3 °F65 %30.37 in10.0 miNNE (30°)8.1 mphClear
7:55 PM25.2 °F14.9 °F65 %30.36 in10.0 miNNE (30°)10.4 mphClear
8:15 PM24.4 °F14.7 °F67 %30.39 in10.0 miNNE (30°)11.5 mphClear
8:35 PM23.9 °F14.2 °F66 %30.41 in10.0 miNNE (20°)10.4 mphClear
9:15 PM22.5 °F12.0 °F64 %30.41 in10.0 miNNE (30°)12.7 mph17.3 mphClear
9:35 PM22.1 °F12.0 °F65 %30.39 in10.0 miNNE (30°)12.7 mph16.1 mphClear
9:55 PM21.4 °F11.1 °F65 %30.42 in10.0 miNNE (30°)13.8 mph20.7 mphClear
10:15 PM20.7 °F10.4 °F65 %30.42 in10.0 miNNE (30°)16.1 mph23.0 mphClear
10:35 PM20.1 °F10.4 °F66 %30.42 in10.0 miNNE (30°)16.1 mph19.6 mphClear
10:55 PM19.4 °F10.2 °F68 %30.43 in10.0 miNE (40°)12.7 mphClear
11:15 PM19.0 °F10.4 °F69 %30.44 in10.0 miNNE (30°)13.8 mphClear
11:35 PM18.3 °F10.4 °F71 %30.45 in10.0 miNNE (30°)9.2 mphClear
11:55 PM17.6 °F10.2 °F73 %30.46 in10.0 miNNE (30°)8.1 mphClear
Hourly data recorded from KHJH, located miles away from Haddam, Kansas







STORIES FROM OUR PARTNERS